GEFSGL_con_probscp_288.txt.gz
Probability
39 35 31 30 31 31 31 29 26 26 29 33 33 29 26 25 25 23 22 19 16 14 14 13 13 15 16 16 17 18 17 17 17 17 17 18 19 17 15 14 13 13 13
35 34 32 31 32 33 32 30 29 29 31 34 34 30 25 25 25 25 22 18 15 12 11 12 13 14 16 17 17 17 16 16 17 16 17 18 19 17 14 13 11 10 11
33 33 31 29 32 35 35 33 32 32 33 34 34 30 25 24 25 24 22 19 15 11 10 10 11 12 15 16 16 16 16 17 17 16 16 18 18 17 15 13 11 10 9
35 34 31 29 32 36 37 35 34 33 33 32 31 29 25 22 22 21 20 19 16 13 11 9 9 10 12 14 14 15 15 16 17 16 15 15 17 19 18 15 12 10 10
40 37 35 35 35 36 37 36 36 35 33 31 30 28 25 20 17 17 17 16 16 15 13 10 9 10 12 12 12 12 13 13 15 16 15 15 18 21 21 17 13 11 11
41 39 40 41 40 38 39 40 40 39 36 33 31 28 25 18 12 10 11 12 13 14 14 13 11 11 12 12 11 10 10 12 13 15 16 17 20 22 22 19 16 13 12
40 39 41 43 44 44 44 46 47 44 41 38 34 31 26 18 9 5 6 8 10 12 14 14 12 11 11 13 13 12 11 11 13 16 17 17 18 20 21 21 19 16 14
41 41 42 45 49 50 50 51 52 48 46 44 39 34 29 19 9 4 4 7 10 11 12 12 12 10 11 13 15 15 14 14 15 16 16 16 16 17 19 20 20 17 16
44 44 45 48 51 53 54 54 54 52 50 47 42 36 30 20 10 4 4 7 9 10 9 9 8 8 10 13 15 16 17 18 18 16 16 15 15 15 16 19 20 19 18
47 46 46 49 52 54 55 55 54 53 51 47 42 36 30 22 12 5 5 8 10 9 8 7 5 6 8 11 14 16 17 18 18 17 16 15 16 16 17 19 21 22 20
47 46 45 47 49 52 54 55 55 52 49 45 41 35 29 23 15 8 6 7 10 12 11 9 7 6 6 7 10 13 15 16 18 19 18 18 19 19 19 19 21 22 22
45 45 45 44 44 47 50 51 52 49 44 39 36 31 26 22 17 10 6 5 9 13 15 12 8 6 5 5 6 9 11 13 17 19 20 21 22 22 20 20 20 21 21
44 46 48 45 43 43 44 44 45 43 38 33 30 27 25 23 21 15 8 4 6 10 13 12 8 5 4 4 4 5 8 12 16 19 20 21 22 21 20 20 20 20 19
46 49 51 48 45 43 40 38 38 38 36 33 30 28 26 26 25 22 16 10 8 9 11 11 9 7 7 7 7 7 10 13 15 16 17 17 17 17 18 19 20 18 17
49 51 50 46 45 44 38 32 30 32 32 29 27 26 25 23 21 19 17 14 12 12 13 14 14 15 15 13 12 12 12 13 12 13 14 13 12 13 15 16 17 15 13
48 47 45 43 43 41 35 27 21 20 17 14 15 17 16 13 10 10 9 9 10 12 15 18 18 17 17 15 13 12 12 11 10 10 10 10 10 10 11 12 13 12 10
42 38 36 37 38 36 32 27 22 16 10 6 5 5 6 4 3 2 3 4 6 8 13 16 16 13 12 12 11 10 10 9 8 8 8 8 8 9 9 10 10 9 7
35 31 29 30 32 32 29 28 27 23 17 11 5 1 1 1 1 0 2 5 8 10 12 13 13 11 10 9 9 8 7 6 6 6 6 7 9 9 9 9 8 6 5
33 30 27 26 27 28 26 26 27 25 21 17 11 4 1 1 1 1 2 6 10 12 11 10 11 11 10 9 8 7 5 4 4 4 5 7 8 9 8 6 5 4 4
34 31 29 28 26 25 25 26 27 25 22 20 16 9 5 4 5 5 5 7 10 11 10 10 10 10 10 9 8 7 5 4 4 4 5 6 6 6 5 4 3 3 3
31 28 28 31 29 26 28 29 29 26 23 21 19 13 8 9 11 11 11 10 10 10 10 10 11 10 9 8 7 6 5 5 5 5 5 4 4 4 3 3 3 3 3
26 25 26 30 30 28 30 33 31 28 23 20 19 14 9 10 14 16 15 13 11 9 8 9 10 10 9 7 6 5 4 4 5 5 4 3 3 3 3 3 3 3 3
24 24 25 28 28 28 30 33 32 29 22 18 16 13 10 11 14 16 15 12 10 8 7 7 8 9 8 7 6 6 5 5 6 5 4 3 2 3 3 3 3 3 3
24 24 24 25 26 26 27 30 30 26 18 14 14 13 13 13 14 15 14 12 10 9 9 8 8 8 8 8 7 6 5 4 4 5 4 2 2 3 3 3 3 3 3
24 23 23 25 25 25 25 26 26 20 14 12 13 14 14 13 12 12 12 12 12 11 11 11 9 9 10 9 7 4 2 1 1 2 2 2 2 3 3 3 3 3 3
23 22 24 25 25 24 24 24 22 18 13 12 13 15 14 12 11 10 10 12 12 12 12 12 11 10 11 11 6 2 0 0 0 0 1 2 3 3 3 3 3 3 3

GEFSGL_con_probscp_294.txt.gz
Probability
17 17 15 12 11 11 10 8 7 7 6 5 6 9 11 8 4 1 2 3 2 1 3 4 4 3 3 3 4 4 5 4 3 2 2 2 2 1 0 0 1 3 4
18 18 17 15 13 13 12 9 8 7 7 7 7 9 10 7 3 2 3 4 3 2 3 4 3 3 3 3 4 6 7 7 6 5 4 5 4 2 1 1 1 3 5
21 20 18 17 16 15 12 9 8 8 9 10 10 10 8 5 2 1 2 3 4 4 4 4 3 3 3 4 5 8 9 10 9 8 6 6 5 3 2 1 1 4 6
22 21 19 19 18 16 12 10 9 8 9 11 12 11 7 4 3 2 2 2 4 4 3 3 3 4 5 5 7 9 10 10 10 9 8 7 6 4 3 2 2 5 7
24 23 22 22 19 15 13 12 12 11 10 10 12 11 9 7 5 4 3 3 4 4 3 2 2 4 6 6 8 8 9 9 10 10 9 10 10 8 6 3 4 6 7
26 26 26 24 19 15 13 14 15 13 11 11 12 12 11 10 8 6 5 4 5 4 3 3 3 4 5 6 6 6 6 8 10 11 11 12 13 12 9 7 6 7 8
24 27 28 26 22 18 15 15 15 15 13 12 12 12 12 11 8 5 4 4 5 4 3 3 4 4 4 4 4 4 4 5 7 9 10 12 14 13 11 9 9 9 10
23 27 30 29 26 22 18 15 15 16 16 15 13 12 12 10 7 4 3 4 5 4 2 2 3 2 2 3 3 4 4 4 4 5 7 9 11 12 10 9 10 10 9
23 27 31 32 30 26 22 18 18 20 20 17 14 12 11 10 7 4 3 4 4 3 2 1 2 2 2 3 4 5 5 5 4 5 5 6 7 8 7 7 8 9 8
24 27 32 34 32 29 26 25 24 24 22 18 14 11 11 9 6 4 3 3 4 4 3 3 3 3 3 3 4 5 5 5 5 6 6 5 5 7 7 7 8 9 8
25 28 33 35 34 31 30 30 29 27 25 20 14 11 10 9 6 4 3 3 4 5 4 4 5 4 3 3 3 4 4 4 5 6 6 6 7 8 8 8 8 8 7
23 26 32 35 35 34 34 33 30 28 26 22 16 12 10 10 7 4 3 3 4 5 6 6 5 4 3 3 3 3 3 3 4 5 6 6 6 6 5 5 4 4 4
20 22 25 30 33 33 33 32 30 29 27 23 18 13 11 10 9 6 4 4 3 4 5 6 5 4 3 3 3 3 2 3 3 4 5 5 4 2 2 2 1 1 1
17 18 20 24 28 31 30 28 27 27 26 23 18 14 12 11 10 8 6 5 5 5 5 5 5 5 5 5 5 4 3 2 2 2 2 2 1 1 1 2 1 0 1
15 15 16 19 25 27 26 22 20 20 21 18 15 14 13 11 9 6 5 5 5 6 6 6 6 7 8 7 7 5 3 2 1 1 0 0 0 0 1 2 1 1 1
12 13 14 17 23 24 20 14 11 11 11 10 9 9 9 7 5 3 2 2 3 4 6 7 7 8 9 8 7 6 4 3 1 0 0 0 0 0 0 1 1 1 1
10 11 13 17 22 22 18 13 9 6 4 2 2 3 3 2 1 0 0 0 0 1 3 6 7 8 8 7 6 6 6 5 2 1 0 0 0 0 0 0 0 0 0
11 11 12 17 22 24 22 18 13 9 4 1 0 0 0 0 0 0 0 0 0 0 1 3 5 6 6 6 6 6 5 4 2 1 0 0 0 0 0 0 0 0 0
10 11 12 16 21 24 24 22 19 15 9 3 1 0 0 0 0 0 0 0 0 0 0 1 2 3 3 3 4 4 3 2 1 0 0 0 0 0 0 0 0 0 0
8 9 10 12 17 22 23 22 21 18 13 8 4 1 0 0 0 0 0 0 0 0 0 0 0 0 1 2 3 3 2 1 0 0 0 0 0 0 0 0 0 0 0
6 6 7 10 14 19 21 21 21 20 17 12 7 3 1 0 0 0 0 0 0 0 0 0 0 0 1 2 3 3 2 1 0 0 0 0 0 0 0 0 0 0 0
6 5 5 7 11 16 19 21 21 20 18 14 10 5 2 1 0 0 0 1 1 1 0 0 0 0 1 2 2 2 2 1 0 0 1 1 1 0 0 0 0 0 0
5 4 4 4 7 12 17 19 21 20 17 15 11 7 3 1 0 1 1 1 1 1 0 0 0 0 0 1 1 0 1 1 0 0 1 2 1 0 1 1 0 0 0
5 4 4 4 7 11 14 17 19 19 17 14 12 9 5 1 0 1 2 2 1 0 0 0 0 0 0 0 0 0 0 0 0 0 1 1 0 0 1 1 0 0 0
6 5 5 4 7 10 13 14 16 17 16 14 13 11 7 3 1 2 2 2 1 0 0 0 0 0 0 0 0 0 0 0 0 0 0 0 0 0 0 0 0 0 0
6 6 5 4 6 10 12 13 13 14 15 15 14 12 8 5 3 2 1 1 1 0 0 0 0 0 0 0 0 0 0 0 0 0 0 0 0 0 0 0 0 0 0

GEFSGL_con_probscp_300.txt.gz
Probability
9 11 11 9 7 5 4 4 4 4 5 6 7 7 6 4 3 3 3 3 3 3 3 3 2 1 0 1 1 1 1 2 4 5 6 6 6 4 2 1 2 2 2
12 12 12 9 7 5 4 4 6 6 7 7 8 7 6 4 4 4 4 3 2 2 2 2 2 1 0 1 1 1 1 3 5 6 7 7 6 4 3 1 1 1 1
13 13 13 10 8 6 5 5 7 8 9 9 9 8 7 7 6 6 5 3 1 0 1 1 1 1 1 1 0 1 2 4 6 7 8 9 8 5 4 4 3 2 2
12 13 13 12 10 9 7 6 7 8 8 9 9 9 9 9 9 8 6 3 1 1 1 1 2 2 1 0 0 1 3 5 6 7 8 9 8 7 7 8 8 6 5
11 12 13 13 13 12 9 8 8 8 8 8 8 9 9 11 11 10 7 5 3 3 4 4 4 3 2 0 0 2 3 5 5 5 5 6 7 9 11 12 11 11 10
12 13 13 13 14 15 14 12 11 11 9 8 7 8 9 10 10 9 7 7 7 7 7 7 6 4 2 1 1 2 3 4 4 4 4 5 8 11 13 13 13 13 14
12 13 13 13 15 17 17 15 14 13 12 10 8 8 10 10 7 5 4 7 9 9 9 8 7 5 4 4 3 3 3 3 3 4 5 7 9 11 12 12 12 13 14
12 13 15 15 17 17 17 16 15 16 15 12 10 10 11 9 4 1 1 3 5 6 6 7 7 6 5 4 4 3 3 3 3 3 5 7 8 9 9 9 10 12 13
13 14 16 17 17 17 17 17 18 19 18 15 12 11 10 7 2 0 1 1 1 2 3 5 6 6 4 3 3 3 3 3 3 3 4 5 5 5 5 7 9 11 12
14 14 16 16 16 16 17 19 21 22 20 16 13 11 9 6 2 1 1 1 1 1 2 3 4 4 3 2 2 3 3 3 3 3 4 4 4 4 4 6 8 10 11
12 13 16 17 17 17 18 20 21 22 22 17 13 11 10 7 4 1 1 2 3 3 3 3 3 3 3 2 1 2 2 3 3 4 5 6 6 6 6 6 7 7 7
11 12 15 18 19 19 20 20 20 22 22 19 15 13 11 8 5 2 2 2 3 4 4 4 3 2 2 2 1 1 2 2 3 3 4 6 8 8 8 6 4 3 2
11 11 14 16 17 18 20 20 19 20 21 20 17 14 11 8 6 3 2 1 1 2 4 4 2 1 1 2 3 2 2 3 3 3 4 6 7 7 6 4 2 1 0
9 10 12 13 14 16 18 19 19 19 20 20 18 15 13 10 8 6 4 3 2 1 2 2 2 1 2 3 3 3 3 3 3 3 3 4 4 4 2 2 1 0 0
7 8 10 12 13 15 17 19 17 17 16 16 17 16 14 12 9 7 6 5 3 2 1 3 5 4 4 4 3 3 3 3 3 3 3 3 2 1 0 0 0 0 0
7 8 9 11 12 14 18 18 15 13 11 10 11 12 11 9 6 4 3 3 2 1 2 5 7 7 6 5 4 3 3 3 3 2 2 2 1 0 0 0 0 0 0
9 9 9 10 11 14 17 18 16 12 9 6 4 4 4 3 2 1 0 0 0 1 3 6 7 7 7 5 3 2 2 2 1 1 1 1 0 1 1 0 0 0 0
9 9 10 11 12 13 15 17 16 14 11 9 5 2 1 0 0 0 0 0 1 2 3 5 5 6 6 5 2 1 1 1 0 0 0 0 0 1 2 1 0 0 0
9 9 9 10 12 13 14 15 15 12 12 11 8 4 1 0 0 0 0 1 2 3 4 3 3 3 4 3 1 0 0 0 0 0 0 0 0 1 2 2 1 1 0
7 8 9 10 11 13 14 15 13 11 10 10 9 6 2 1 1 1 1 1 2 3 3 3 2 2 1 1 0 0 0 0 0 0 0 0 0 0 1 2 3 2 1
6 6 8 9 10 11 13 14 13 11 11 10 9 7 3 2 4 4 3 2 3 3 3 3 3 2 1 0 0 0 0 0 0 0 0 0 0 0 1 2 3 3 3
4 5 7 9 9 9 10 11 11 11 11 11 10 6 3 2 5 6 5 4 3 3 2 2 3 2 1 0 0 0 0 0 0 0 0 0 0 0 0 1 2 3 3
4 5 7 7 7 6 6 7 9 10 11 11 10 7 4 3 5 6 7 6 5 4 3 3 3 2 0 0 0 0 0 0 0 0 0 0 0 0 0 1 2 2 2
4 6 6 6 6 5 4 4 5 7 9 10 10 8 6 4 4 4 6 6 5 5 4 4 3 2 0 0 0 0 0 0 0 0 0 0 0 0 0 1 1 1 1
4 6 6 6 6 6 5 4 4 4 5 7 8 7 5 4 3 2 2 3 4 4 4 3 2 1 0 0 0 0 0 0 0 0 0 0 0 0 0 0 0 0 0
4 6 6 6 6 6 6 4 3 3 2 3 6 6 4 3 2 1 0 1 2 3 3 3 1 0 0 0 0 0 0 0 0 0 0 0 0 0 0 0 0 0 0

GEFSGL_con_probscp_306.txt.gz
Probability
9 9 9 10 10 10 10 9 8 9 9 10 11 12 13 13 14 13 11 11 13 14 14 15 16 14 12 10 9 9 9 7 4 4 9 13 13 11 11 11 8 7 8
11 10 10 10 10 10 10 9 9 10 10 10 11 12 13 13 15 15 13 13 15 15 15 16 16 16 16 15 14 13 12 12 10 9 11 14 15 13 13 12 9 8 8
12 12 12 13 12 10 10 9 10 10 10 11 12 12 12 13 15 16 16 16 17 16 16 17 17 17 18 20 20 19 17 17 16 14 14 17 17 15 14 12 11 11 10
13 13 15 17 15 13 12 12 12 12 12 13 14 15 13 12 13 15 15 16 16 16 17 17 17 16 16 18 21 22 22 20 19 18 16 16 17 16 14 12 11 12 13
17 17 18 20 20 19 18 16 16 16 17 17 17 17 15 11 10 11 13 14 15 16 17 17 16 15 13 12 14 17 19 21 21 19 16 15 17 18 16 14 13 13 14
20 22 22 21 21 22 21 20 20 21 22 21 19 18 16 11 6 6 9 12 15 17 18 17 15 14 12 7 5 6 10 15 17 17 15 15 18 20 20 19 18 16 16
24 25 24 21 21 22 22 21 22 26 29 27 23 21 18 13 6 3 6 11 16 19 19 17 15 15 14 10 6 6 7 9 11 13 14 16 19 20 22 23 23 21 20
29 29 26 23 23 23 23 22 24 29 33 32 29 26 22 16 9 3 4 10 15 17 18 16 15 16 16 14 14 15 15 13 10 10 12 14 15 16 19 21 22 21 20
31 31 30 29 28 27 25 24 25 30 34 36 33 29 24 18 11 3 4 10 14 15 14 14 14 16 16 15 18 21 21 18 13 10 10 9 9 9 12 14 16 16 16
29 30 31 31 32 31 29 27 26 28 32 35 33 29 26 21 12 4 4 10 13 13 12 12 11 12 11 11 15 19 20 19 17 14 11 9 8 9 9 10 11 11 11
27 28 30 32 32 32 31 30 28 28 30 33 32 29 27 23 14 5 4 8 11 12 12 12 10 8 5 4 8 14 15 16 17 17 15 13 12 12 11 10 10 10 10
24 25 28 31 33 33 33 33 33 31 30 30 30 30 28 24 16 7 3 4 8 11 13 12 9 4 1 0 3 6 7 10 15 17 16 15 13 12 12 11 11 11 11
19 21 24 29 31 32 33 34 33 31 28 27 28 30 30 26 18 9 3 1 3 8 11 10 7 2 0 0 1 2 4 9 15 18 17 14 11 11 12 13 13 12 10
16 18 21 23 25 26 28 28 28 26 24 24 25 28 30 27 20 12 8 6 5 7 11 11 8 5 4 4 4 5 8 12 16 18 17 14 12 12 13 13 13 10 7
16 17 17 17 19 21 22 22 21 19 17 16 18 22 25 24 17 11 10 11 10 10 13 15 14 13 12 10 9 10 11 14 15 16 15 13 13 13 14 13 11 8 6
15 15 15 16 17 19 19 18 16 12 8 6 8 11 14 13 8 5 5 7 7 8 12 17 19 18 16 13 12 12 13 13 14 13 13 13 13 13 14 13 10 7 6
13 12 14 16 16 16 17 17 16 12 7 4 2 3 4 3 2 1 0 1 1 3 9 16 18 17 16 14 12 12 12 13 13 12 12 13 13 13 13 12 10 7 6
10 10 12 14 14 13 14 16 17 16 12 9 5 2 0 0 0 0 0 1 2 4 9 15 17 18 18 17 15 13 13 12 11 11 11 12 12 13 13 12 9 5 4
8 9 10 11 12 12 13 15 16 17 16 14 11 6 2 1 1 1 1 3 6 8 12 15 16 17 19 19 18 16 15 13 10 10 10 11 12 12 12 11 8 4 2
8 8 9 10 10 11 12 13 15 17 17 16 14 11 7 5 5 4 3 4 8 11 14 15 14 15 17 18 19 18 17 14 11 10 10 10 11 11 10 9 6 2 1
7 7 8 9 10 10 11 12 14 16 16 16 15 13 10 10 10 9 6 6 7 10 12 13 13 13 14 16 16 16 16 14 11 10 9 10 11 9 7 6 3 1 1
5 5 6 9 9 9 10 11 13 14 15 15 14 12 10 11 12 11 9 8 7 8 9 12 13 13 13 13 12 12 11 11 10 9 8 8 7 6 4 3 1 0 0
2 3 5 7 8 8 8 10 11 12 12 12 11 9 8 8 10 10 10 9 8 8 8 10 12 11 10 10 10 10 9 9 9 8 7 5 3 2 1 1 0 0 0
2 3 3 4 5 5 6 6 7 8 8 7 6 5 5 5 6 8 8 9 9 10 9 9 9 8 7 7 9 9 7 5 6 6 6 4 2 1 0 0 0 0 0
2 2 2 2 3 3 3 3 3 4 4 4 3 3 3 3 4 5 5 7 8 10 10 9 8 7 6 6 7 7 5 2 2 3 4 4 3 2 2 1 0 1 1
1 1 1 1 1 1 1 1 1 2 3 3 3 3 3 3 3 3 4 5 7 8 8 8 7 7 6 6 6 6 3 0 0 2 3 4 3 3 3 2 1 2 2